Location: Helsinki
(60.1699°N, 24.9384°E)
Time: 23:35:11
(UTC+02:00)

A-11 Canister half - Pass Details

Date: 28 October 2020
Orbit: 1516 x 1684 km, 47.2° (Epoch: 26 November)

Event Time Altitude Azimuth Distance (km) Brightness Sun altitude
Rises 18:38:42 0° 171° (S) 4,927 11.6 -15.9°
Reaches altitude 10° 18:45:24 10° 140° (SE) 3,926 10.7 -16.8°
Enters shadow 18:47:00 11° 131° (SE) 3,848 10.6 -17.0°
Maximum altitude 18:47:44 11° 127° (SE) 3,836 - -17.1°
Drops below altitude 10° 18:50:04 10° 113° (ESE) 3,910 - -17.3°
Sets 18:56:39 0° 82° (E) 4,863 - -18.2°
